TimeMST,TemperatureF,Dew PointF,Humidity,Sea Level PressureIn,VisibilityMPH,Wind Direction,Wind SpeedMPH,Gust SpeedMPH,PrecipitationIn,Events,Conditions,WindDirDegrees,DateUTC
12:53 AM,12.9,10.0,88,30.03,6.0,ENE,3.5,-,N/A,,Partly Cloudy,60,2013-02-22 07:53:00
1:53 AM,10.9,9.0,92,30.02,7.0,ENE,4.6,-,N/A,,Clear,70,2013-02-22 08:53:00
2:53 AM,10.9,8.1,88,30.01,6.0,East,4.6,-,N/A,,Clear,80,2013-02-22 09:53:00
3:53 AM,9.0,6.1,88,30.00,7.0,Calm,Calm,-,N/A,,Clear,0,2013-02-22 10:53:00
4:53 AM,8.1,5.0,87,30.00,8.0,East,3.5,-,N/A,,Clear,90,2013-02-22 11:53:00
5:53 AM,8.1,3.9,83,30.00,9.0,Calm,Calm,-,N/A,,Clear,0,2013-02-22 12:53:00
6:53 AM,5.0,1.9,87,30.01,8.0,Calm,Calm,-,N/A,,Clear,0,2013-02-22 13:53:00
7:53 AM,10.9,8.1,88,30.00,7.0,ENE,3.5,-,N/A,,Overcast,70,2013-02-22 14:53:00
8:53 AM,14.0,10.9,88,29.99,6.0,East,5.8,-,N/A,,Overcast,80,2013-02-22 15:53:00
9:53 AM,17.1,14.0,88,29.98,7.0,ENE,3.5,-,N/A,,Overcast,70,2013-02-22 16:53:00
10:53 AM,21.9,17.1,82,29.95,10.0,Calm,Calm,-,N/A,,Overcast,0,2013-02-22 17:53:00
11:53 AM,27.0,19.9,75,29.93,10.0,Calm,Calm,-,N/A,,Partly Cloudy,0,2013-02-22 18:53:00
12:53 PM,33.1,23.0,66,29.89,10.0,Calm,Calm,-,N/A,,Clear,0,2013-02-22 19:53:00
1:53 PM,36.0,24.1,62,29.86,10.0,Calm,Calm,-,N/A,,Clear,0,2013-02-22 20:53:00
2:53 PM,37.9,24.1,57,29.83,10.0,Calm,Calm,-,N/A,,Clear,0,2013-02-22 21:53:00
3:53 PM,37.0,25.0,62,29.83,10.0,ESE,3.5,-,N/A,,Clear,110,2013-02-22 22:53:00
4:53 PM,35.1,25.0,67,29.82,10.0,East,5.8,-,N/A,,Clear,90,2013-02-22 23:53:00
5:53 PM,28.0,23.0,81,29.83,10.0,NE,3.5,-,N/A,,Clear,50,2013-02-23 00:53:00
6:53 PM,25.0,21.0,85,29.82,10.0,NE,6.9,-,N/A,,Clear,50,2013-02-23 01:53:00
7:53 PM,24.1,21.0,88,29.78,10.0,ENE,6.9,-,N/A,,Clear,60,2013-02-23 02:53:00
8:53 PM,21.9,19.0,89,29.77,10.0,ENE,6.9,-,N/A,,Clear,60,2013-02-23 03:53:00
9:53 PM,21.9,18.0,85,29.74,10.0,NE,9.2,-,N/A,,Clear,50,2013-02-23 04:53:00
10:53 PM,21.9,17.1,82,29.72,10.0,NNE,4.6,-,N/A,,Clear,30,2013-02-23 05:53:00
11:53 PM,21.0,17.1,85,29.70,10.0,NE,6.9,-,N/A,,Clear,40,2013-02-23 06:53:00